Log Lane Village, CO

7:28 AM MST on February 12, 2016 (GMT -0700)
Fort Morgan

Weather History for KFMM - March, 2013

Change the Weather History Date:

Friday, March 29, 2013

  Actual Average (KAKO) Record (KAKO)
Temperature  
Mean Temperature 52 °F 42 °F  
Max Temperature 70 °F 56 °F 83 °F (1943)
Min Temperature 35 °F 29 °F 0 °F (1975)
Degree Days  
Heating Degree Days 12    
Month to date heating degree days  
Cooling Degree Days 0    
Month to date cooling degree days  
Growing Degree Days 2 (Base 50)    
Moisture  
Dew Point 32 °F    
Average Humidity 56    
Maximum Humidity 91    
Minimum Humidity 19    
Precipitation  
Precipitation 0.00 in 0.03 in 0.55 in (1981)
Month to date precipitation 0.79  
Year to date precipitation 1.53  
Sea Level Pressure  
Sea Level Pressure 30.08 in    
Wind  
Wind Speed 8 mph (West)    
Max Wind Speed 21 mph    
Max Gust Speed 34 mph    
Visibility 10 miles    
Events      
T = Trace of Precipitation, MM = Missing Value Source: NWS Daily Summary

Daily Weather History Graph

Daily Weather History Graph

Search for Another Location

Airport or City:

Trip Planner

Search our weather history database for the weather conditions in past years. The results will help you decide how hot, cold, wet, or windy it might be!

Date:

Astronomy

Mar. 29, 2013 Rise Set
Actual Time 6:43 AM MDT 7:16 PM MDT
Civil Twilight 6:16 AM MDT 7:44 PM MDT
Nautical Twilight 5:43 AM MDT 8:16 PM MDT
Astronomical Twilight 5:10 AM MDT 8:49 PM MDT
Moon 10:20 PM MDT (3/29) 7:53 AM MDT (3/29)
Length of Visible Light 13h 28m
Length of Day
12h 33m
Waning Gibbous, 93% of the Moon is Illuminated
Mar 29
Waning Gibbous
Apr 2
Last Quarter
Apr 10
New
Apr 18
First Quarter
Apr 25
Full

Hourly Weather History & Observations

Time (MDT) Temp. Windchill Dew Point Humidity Pressure Visibility Wind Dir Wind Speed Gust Speed Precip Events Conditions
12:15 AM 44.4 °F 41.2 °F 32.0 °F 62% 30.11 in 10.0 mi WNW 5.8 mph - N/A   Clear
12:55 AM 40.8 °F 35.6 °F 32.2 °F 71% 30.10 in 10.0 mi NNW 8.1 mph - N/A   Clear
1:15 AM 37.9 °F 31.5 °F 33.1 °F 83% 30.12 in 10.0 mi South 9.2 mph - N/A   Clear
1:35 AM 38.1 °F 32.9 °F 33.6 °F 84% 30.11 in 10.0 mi West 6.9 mph - N/A   Clear
1:55 AM 37.4 °F 32.1 °F 33.1 °F 84% 30.10 in 10.0 mi West 6.9 mph - N/A   Clear
2:35 AM 36.9 °F 33.1 °F 32.9 °F 86% 30.10 in 10.0 mi WSW 4.6 mph - N/A   Clear
2:55 AM 37.4 °F 32.1 °F 32.4 °F 82% 30.10 in 10.0 mi SW 6.9 mph - N/A   Clear
3:15 AM 38.8 °F 36.5 °F 32.7 °F 79% 30.09 in 10.0 mi SW 3.5 mph - N/A   Clear
3:35 AM 39.0 °F - 32.9 °F 79% 30.09 in 10.0 mi Calm Calm - N/A   Clear
3:55 AM 39.0 °F 36.8 °F 33.1 °F 79% 30.09 in 10.0 mi SW 3.5 mph - N/A   Clear
4:15 AM 36.3 °F 32.5 °F 32.2 °F 85% 30.09 in 10.0 mi West 4.6 mph - N/A   Clear
4:35 AM 36.1 °F 31.4 °F 32.2 °F 86% 30.09 in 10.0 mi West 5.8 mph - N/A   Clear
4:55 AM 35.1 °F - 32.0 °F 89% 30.09 in 10.0 mi Calm Calm - N/A   Clear
5:15 AM 35.1 °F - 32.0 °F 89% 30.09 in 10.0 mi Calm Calm - N/A   Clear
5:35 AM 37.0 °F 32.4 °F 32.0 °F 82% 30.09 in 10.0 mi SW 5.8 mph - N/A   Scattered Clouds
5:55 AM 35.6 °F 31.7 °F 32.2 °F 87% 30.10 in 10.0 mi WSW 4.6 mph - N/A   Mostly Cloudy
6:15 AM 36.7 °F 32.9 °F 32.5 °F 85% 30.09 in 10.0 mi SW 4.6 mph - N/A   Mostly Cloudy
6:35 AM 35.6 °F 31.7 °F 32.2 °F 87% 30.10 in 10.0 mi WSW 4.6 mph - N/A   Mostly Cloudy
6:55 AM 35.6 °F 29.2 °F 32.2 °F 87% 30.10 in 10.0 mi WSW 8.1 mph - N/A   Mostly Cloudy
7:15 AM 35.2 °F 28.1 °F 32.2 °F 89% 30.11 in 10.0 mi West 9.2 mph - N/A   Scattered Clouds
7:35 AM 35.8 °F 30.1 °F 33.3 °F 91% 30.11 in 10.0 mi West 6.9 mph - N/A   Scattered Clouds
7:55 AM 37.4 °F 30.8 °F 34.2 °F 88% 30.11 in 10.0 mi West 9.2 mph - N/A   Scattered Clouds
8:15 AM 38.1 °F 31.7 °F 34.3 °F 86% 30.11 in 10.0 mi WSW 9.2 mph - N/A   Clear
8:35 AM 39.0 °F 31.8 °F 35.1 °F 86% 30.12 in 10.0 mi West 11.5 mph - N/A   Clear
8:55 AM 40.3 °F 33.9 °F 35.2 °F 82% 30.11 in 10.0 mi WSW 10.4 mph - N/A   Clear
9:15 AM 41.9 °F 35.4 °F 35.6 °F 78% 30.11 in 10.0 mi WSW 11.5 mph - N/A   Clear
9:35 AM 43.0 °F 37.2 °F 35.6 °F 75% 30.11 in 10.0 mi West 10.4 mph - N/A   Clear
9:55 AM 45.0 °F 40.6 °F 36.0 °F 71% 30.11 in 10.0 mi WSW 8.1 mph - N/A   Clear
10:15 AM 47.8 °F - 35.8 °F 63% 30.11 in 10.0 mi WSW 5.8 mph - N/A   Clear
10:35 AM 51.8 °F - 34.9 °F 53% 30.11 in 10.0 mi WSW 6.9 mph - N/A   Clear
10:55 AM 54.5 °F - 34.9 °F 48% 30.11 in 10.0 mi WSW 5.8 mph - N/A   Clear
11:15 AM 56.1 °F - 35.2 °F 45% 30.11 in 10.0 mi WSW 6.9 mph - N/A   Clear
11:35 AM 58.3 °F - 35.1 °F 42% 30.10 in 10.0 mi West 8.1 mph - N/A   Clear
11:55 AM 61.0 °F - 34.3 °F 37% 30.09 in 10.0 mi WSW 9.2 mph - N/A   Clear
12:15 PM 62.1 °F - 33.8 °F 35% 30.08 in 10.0 mi West 8.1 mph - N/A   Clear
12:35 PM 64.6 °F - 32.4 °F 30% 30.08 in 10.0 mi WSW 6.9 mph - N/A   Clear
12:55 PM 67.1 °F - 29.7 °F 25% 30.07 in 10.0 mi WSW 13.8 mph 19.6 mph N/A   Clear
1:15 PM 67.3 °F - 30.0 °F 25% 30.06 in 10.0 mi WSW 16.1 mph 21.9 mph N/A   Clear
1:35 PM 68.4 °F - 28.8 °F 23% 30.05 in 10.0 mi West 9.2 mph 19.6 mph N/A   Clear
1:55 PM 70.0 °F - 28.2 °F 21% 30.04 in 10.0 mi West 10.4 mph 17.3 mph N/A   Clear
2:15 PM 70.5 °F - 26.2 °F 19% 30.03 in 10.0 mi WSW 8.1 mph - N/A   Clear
2:35 PM 67.3 °F - 25.2 °F 20% 30.03 in 10.0 mi NW 12.7 mph 19.6 mph N/A   Mostly Cloudy
2:55 PM 66.0 °F - 26.6 °F 23% 30.03 in 10.0 mi NNW 9.2 mph - N/A   Overcast
3:15 PM 65.5 °F - 27.5 °F 24% 30.03 in 10.0 mi WNW 20.7 mph 26.5 mph N/A   Overcast
3:35 PM 62.2 °F - 27.9 °F 27% 30.03 in 10.0 mi WSW 20.7 mph 29.9 mph N/A   Scattered Clouds
3:55 PM 62.2 °F - 29.5 °F 29% 30.04 in 10.0 mi SW 8.1 mph - N/A   Mostly Cloudy
4:15 PM 65.8 °F - 30.2 °F 26% 30.04 in 10.0 mi SW 9.2 mph 19.6 mph N/A   Scattered Clouds
4:35 PM 64.8 °F - 29.5 °F 27% 30.04 in 10.0 mi West 6.9 mph - N/A   Scattered Clouds
4:55 PM 63.9 °F - 29.5 °F 27% 30.04 in 10.0 mi NNW 5.8 mph - N/A   Mostly Cloudy
5:15 PM 66.2 °F - 28.4 °F 24% 30.03 in 10.0 mi WNW 6.9 mph - N/A   Scattered Clouds
5:35 PM 65.3 °F - 27.9 °F 24% 30.03 in 10.0 mi West 8.1 mph - N/A   Clear
5:55 PM 63.5 °F - 30.4 °F 29% 30.04 in 10.0 mi West 5.8 mph - N/A   Clear
6:15 PM 62.1 °F - 26.2 °F 26% 30.04 in 10.0 mi West 8.1 mph 34.5 mph N/A   Scattered Clouds
6:35 PM 61.2 °F - 27.7 °F 28% 30.05 in 10.0 mi West 19.6 mph 23.0 mph N/A   Mostly Cloudy
6:55 PM 59.0 °F - 30.7 °F 34% 30.06 in 10.0 mi NNW 13.8 mph 28.8 mph N/A   Overcast
7:15 PM 57.2 °F - 32.0 °F 38% 30.06 in 10.0 mi NNW 8.1 mph - N/A   Mostly Cloudy
7:35 PM 55.6 °F - 33.3 °F 43% 30.06 in 10.0 mi West 6.9 mph - N/A   Mostly Cloudy
7:55 PM 56.5 °F - 31.1 °F 38% 30.05 in 10.0 mi SSW 12.7 mph - N/A   Scattered Clouds
8:15 PM 53.1 °F - 31.5 °F 44% 30.06 in 10.0 mi SW 4.6 mph - N/A   Clear
8:35 PM 49.8 °F - 32.0 °F 50% 30.06 in 10.0 mi West 6.9 mph - N/A   Clear
8:55 PM 48.4 °F - 33.1 °F 56% 30.06 in 10.0 mi WNW 9.2 mph - N/A   Clear
9:15 PM 48.4 °F - 33.4 °F 56% 30.08 in 10.0 mi NW 13.8 mph - N/A   Clear
9:35 PM 48.9 °F - 33.8 °F 56% 30.08 in 10.0 mi NNW 13.8 mph - N/A   Clear
9:55 PM 47.7 °F - 33.4 °F 58% 30.09 in 10.0 mi NNW 13.8 mph - N/A   Clear
10:15 PM 47.5 °F - 33.1 °F 57% 30.09 in 10.0 mi NNW 12.7 mph - N/A   Clear
10:35 PM 46.6 °F - 33.1 °F 59% 30.09 in 10.0 mi NNW 12.7 mph - N/A   Clear
10:55 PM 46.8 °F - 33.1 °F 59% 30.08 in 10.0 mi NNW 10.4 mph - N/A   Clear
11:15 PM 44.8 °F 41.0 °F 33.3 °F 64% 30.09 in 10.0 mi WSW 6.9 mph - N/A   Clear
11:35 PM 45.1 °F 39.9 °F 33.6 °F 64% 30.11 in 10.0 mi WNW 10.4 mph - N/A   Clear
11:55 PM 44.2 °F 38.4 °F 33.6 °F 66% 30.09 in 10.0 mi NW 11.5 mph - N/A   Clear